Knoxville, TN

8:56 PM EST on November 17, 2019 (GMT -0500)
McGhee Tyson

Weather History for KTYS - September, 2019

Change the Weather History Date:

Sunday, September 29, 2019

  Actual Average Record
Temperature  
Mean Temperature 82 °F 66 °F  
Max Temperature 95 °F 77 °F 92 °F (1904)
Min Temperature 69 °F 55 °F 37 °F (1942)
Degree Days  
Heating Degree Days 0 2  
Month to date heating degree days 0 19  
Since 1 July heating degree days 0 19  
Cooling Degree Days 17 3  
Month to date cooling degree days 392 202  
Year to date cooling degree days 1845 1483  
Growing Degree Days 32 (Base 50)    
Moisture  
Dew Point 66 °F    
Average Humidity 63    
Maximum Humidity 90    
Minimum Humidity 37    
Precipitation  
Precipitation 0.00 in 0.11 in 4.17 in (1944)
Month to date precipitation 0.03 3.13  
Year to date precipitation 48.26 36.73  
Snow  
Snow 0.00 in 0.00 in - ()
Month to date snowfall 0.0 0.0  
Since 1 July snowfall 0.0 0.0  
Since 1 September snowfall 0.0 0.0  
Snow Depth 0.00 in    
Sea Level Pressure  
Sea Level Pressure 30.15 in    
Wind  
Wind Speed 2 mph ()    
Max Wind Speed 12 mph    
Max Gust Speed 14 mph    
Visibility 10.0 miles    
Events      
T = Trace of Precipitation, MM = Missing Value Source: Averaged Metar Reports

Daily Weather History Graph

Daily Weather History Graph

Search for Another Location

Airport or City:

Astronomy

Sep. 29, 2019 Rise Set
Actual Time 7:29 AM EDT 7:22 PM EDT
Civil Twilight 7:03 AM EDT 7:48 PM EDT
Nautical Twilight 6:34 AM EDT 8:17 PM EDT
Astronomical Twilight 6:04 AM EDT 8:47 PM EDT
Moon 8:18 AM EDT (9/29) 8:24 PM EDT (9/29)
Length of Visible Light 12h 44m
Length of Day
11h 53m
New Moon, 1% of the Moon is Illuminated
Sep 29
New Moon
Oct 5
First Quarter
Oct 13
Full
Oct 21
Last Quarter
Oct 27
New

Hourly Weather History & Observations

Time (EDT) Temp. Heat Index Dew Point Humidity Pressure Visibility Wind Dir Wind Speed Gust Speed Precip Events Conditions
12:53 AM 75.9 °F - 66.0 °F 71% 30.13 in 10.0 mi Calm Calm - N/A   Clear
1:53 AM 73.0 °F - 66.9 °F 81% 30.14 in 10.0 mi Calm Calm - N/A   Clear
2:53 AM 72.0 °F - 66.9 °F 84% 30.14 in 10.0 mi NE 4.6 mph - N/A   Clear
3:53 AM 71.1 °F - 66.0 °F 84% 30.15 in 10.0 mi Calm Calm - N/A   Clear
4:53 AM 71.1 °F - 66.9 °F 87% 30.15 in 10.0 mi Calm Calm - N/A   Overcast
5:53 AM 71.1 °F - 66.9 °F 87% 30.16 in 10.0 mi Calm Calm - N/A   Scattered Clouds
7:53 AM 70.0 °F - 66.0 °F 87% 30.19 in 10.0 mi Calm Calm - N/A   Clear
8:53 AM 73.0 °F - 66.9 °F 81% 30.21 in 10.0 mi Calm Calm - N/A   Partly Cloudy
9:53 AM 79.0 °F - 68.0 °F 69% 30.21 in 10.0 mi NE 3.5 mph - N/A   Partly Cloudy
10:53 AM 82.0 °F 84.5 °F 66.9 °F 60% 30.21 in 10.0 mi Variable 3.5 mph - N/A   Partly Cloudy
11:53 AM 86.0 °F 88.2 °F 66.0 °F 51% 30.20 in 10.0 mi Calm Calm - N/A   Clear
12:53 PM 89.1 °F 91.3 °F 66.0 °F 46% 30.18 in 10.0 mi West 4.6 mph - N/A   Overcast
1:53 PM 91.0 °F 93.8 °F 66.0 °F 44% 30.15 in 10.0 mi Variable 5.8 mph - N/A   Scattered Clouds
2:53 PM 93.0 °F 95.0 °F 64.9 °F 39% 30.13 in 10.0 mi Variable 4.6 mph - N/A   Overcast
3:53 PM 93.9 °F 95.6 °F 64.0 °F 37% 30.11 in 10.0 mi SW 6.9 mph - N/A   Overcast
4:53 PM 93.0 °F 94.6 °F 64.0 °F 38% 30.10 in 10.0 mi West 6.9 mph - N/A   Mostly Cloudy
5:53 PM 91.0 °F 92.6 °F 64.0 °F 41% 30.10 in 10.0 mi West 5.8 mph - N/A   Scattered Clouds
6:53 PM 89.1 °F 91.0 °F 64.9 °F 45% 30.10 in 10.0 mi West 5.8 mph - N/A   Scattered Clouds
7:53 PM 84.9 °F 87.1 °F 66.0 °F 53% 30.11 in 10.0 mi NE 3.5 mph - N/A   Mostly Cloudy
8:53 PM 82.9 °F 85.4 °F 66.9 °F 58% 30.12 in 10.0 mi NE 4.6 mph - N/A   Scattered Clouds
9:53 PM 82.0 °F 84.9 °F 68.0 °F 62% 30.14 in 10.0 mi Calm Calm - N/A   Mostly Cloudy
10:53 PM 80.1 °F 82.7 °F 68.0 °F 67% 30.15 in 10.0 mi Calm Calm - N/A   Mostly Cloudy
11:53 PM 78.1 °F - 68.0 °F 71% 30.14 in 10.0 mi Calm Calm - N/A   Scattered Clouds